Weather History for KPRO - June, 2013

Change the Weather History Date:

Tuesday, June 11, 2013

  Actual Average Record
Temperature  
Mean Temperature 74 °F -  
Max Temperature 86 °F 80 °F 98 °F (1977)
Min Temperature 63 °F 57 °F 45 °F (1988)
Cooling Degree Days 10    
Growing Degree Days 24 (Base 50)    
Moisture  
Dew Point 64 °F    
Average Humidity 71    
Maximum Humidity 90    
Minimum Humidity 49    
Precipitation  
Precipitation 0.00 in - - ()
Sea Level Pressure  
Sea Level Pressure 29.82 in    
Wind  
Wind Speed 7 mph (ESE)    
Max Wind Speed 22 mph    
Max Gust Speed 52 mph    
Visibility 10 miles    
Events      
Averages and records for this station are not official NWS values.
T = Trace of Precipitation, MM = Missing Value Source: NWS Daily Summary

Daily Weather History Graph

Daily Weather History Graph

Search for Another Location

Airport or City:

Trip Planner

Search our weather history database for the weather conditions in past years. The results will help you decide how hot, cold, wet, or windy it might be!

Date:

Astronomy

Jun. 11, 2013 Rise Set
Actual Time 5:41 AM CDT 8:51 PM CDT
Civil Twilight 5:07 AM CDT 9:25 PM CDT
Nautical Twilight 4:23 AM CDT 10:09 PM CDT
Astronomical Twilight 3:30 AM CDT 11:02 PM CDT
Moon 8:26 AM CDT (6/11) 10:52 PM CDT (6/11)
Length of Visible Light 16h 18m
Length of Day
15h 10m
Waxing Crescent, 8% of the Moon is Illuminated
Jun 11
Waxing Crescent
Jun 16
First Quarter
Jun 23
Full
Jun 29
Last Quarter
Jul 8
New

Hourly Weather History & Observations

Time (CDT) Temp. Heat Index Dew Point Humidity Pressure Visibility Wind Dir Wind Speed Gust Speed Precip Events Conditions
12:15 AM 63.9 °F - 60.4 °F 89% 29.90 in 10.0 mi ESE 3.5 mph - N/A   Clear
12:35 AM 64.6 °F - 61.2 °F 89% 29.90 in 10.0 mi SE 3.5 mph - N/A   Clear
12:55 AM 64.4 °F - 61.0 °F 89% 29.89 in 10.0 mi ESE 5.8 mph - N/A   Clear
1:15 AM 63.7 °F - 60.6 °F 90% 29.88 in 10.0 mi ESE 8.1 mph - N/A   Clear
1:35 AM 63.9 °F - 60.4 °F 89% 29.86 in 10.0 mi ESE 5.8 mph - N/A   Clear
1:55 AM 63.7 °F - 60.3 °F 89% 29.87 in 10.0 mi SE 3.5 mph - N/A   Clear
2:15 AM 64.4 °F - 60.4 °F 87% 29.87 in 10.0 mi SE 5.8 mph - N/A   Clear
2:35 AM 64.4 °F - 60.8 °F 88% 29.88 in 10.0 mi East 3.5 mph - N/A   Mostly Cloudy
3:20 AM 64.4 °F - 60.8 °F 88% 29.86 in 10.0 mi ESE 6.9 mph - N/A   Mostly Cloudy
3:46 AM 64.4 °F - 60.8 °F 88% 29.85 in 10.0 mi SE 8.1 mph - N/A   Mostly Cloudy
4:02 AM 66.2 °F - 60.8 °F 83% 29.85 in 10.0 mi SE 8.1 mph - N/A   Scattered Clouds
4:23 AM 66.2 °F - 60.8 °F 83% 29.84 in 10.0 mi SE 6.9 mph - N/A   Clear
4:49 AM 66.2 °F - 60.8 °F 83% 29.83 in 10.0 mi SE 6.9 mph - N/A   Clear
5:04 AM 66.2 °F - 60.8 °F 83% 29.83 in 10.0 mi SE 6.9 mph - N/A   Clear
5:25 AM 66.2 °F - 60.8 °F 83% 29.82 in 10.0 mi ESE 6.9 mph - N/A   Clear
5:43 AM 64.4 °F - 60.8 °F 88% 29.82 in 10.0 mi ESE 5.8 mph - N/A   Clear
6:04 AM 66.2 °F - 60.8 °F 83% 29.81 in 10.0 mi ESE 8.1 mph - N/A   Clear
6:24 AM 66.2 °F - 60.8 °F 83% 29.81 in 10.0 mi ESE 6.9 mph - N/A   Clear
6:46 AM 66.2 °F - 60.8 °F 83% 29.82 in 10.0 mi East 4.6 mph - N/A   Clear
7:33 AM 68.0 °F - 62.6 °F 83% 29.81 in 10.0 mi ESE 8.1 mph - N/A   Clear
7:47 AM 69.8 °F - 62.6 °F 78% 29.82 in 10.0 mi ESE 6.9 mph - N/A   Clear
8:07 AM 69.8 °F - 62.6 °F 78% 29.83 in 10.0 mi ESE 5.8 mph - N/A   Clear
8:43 AM 69.8 °F - 62.6 °F 78% 29.83 in 10.0 mi East 6.9 mph - N/A   Clear
9:10 AM 71.6 °F - 62.6 °F 73% 29.83 in 10.0 mi SE 8.1 mph - N/A   Clear
9:23 AM 71.6 °F - 62.6 °F 73% 29.84 in 10.0 mi SE 8.1 mph - N/A   Clear
9:43 AM 71.6 °F - 62.6 °F 73% 29.83 in 10.0 mi East 6.9 mph - N/A   Clear
10:03 AM 73.4 °F - 62.6 °F 69% 29.81 in 10.0 mi East 8.1 mph - N/A   Clear
10:23 AM 75.2 °F - 62.6 °F 65% 29.80 in 10.0 mi East 8.1 mph - N/A   Clear
10:43 AM 75.2 °F - 64.4 °F 69% 29.82 in 10.0 mi SE 6.9 mph - N/A   Clear
11:08 AM 77.0 °F - 64.4 °F 65% 29.83 in 10.0 mi SE 4.6 mph - N/A   Clear
11:20 AM 78.8 °F - 64.4 °F 61% 29.84 in 10.0 mi SE 4.6 mph - N/A   Clear
11:44 AM 78.8 °F - 64.4 °F 61% 29.83 in 10.0 mi East 5.8 mph - N/A   Clear
12:00 PM 78.8 °F - 64.4 °F 61% 29.82 in 10.0 mi ESE 8.1 mph - N/A   Clear
12:23 PM 80.6 °F 82.3 °F 64.4 °F 58% 29.81 in 10.0 mi ENE 6.9 mph - N/A   Clear
12:35 PM 80.8 °F 82.5 °F 64.8 °F 58% 29.81 in 10.0 mi NE 8.1 mph - N/A   Clear
12:55 PM 81.0 °F 82.7 °F 65.1 °F 58% 29.81 in 10.0 mi East 9.2 mph - N/A   Clear
1:15 PM 82.4 °F 84.2 °F 65.3 °F 56% 29.82 in 10.0 mi ENE 8.1 mph - N/A   Clear
1:35 PM 83.5 °F 85.3 °F 65.1 °F 54% 29.84 in 10.0 mi East 5.8 mph - N/A   Clear
1:55 PM 83.3 °F 85.3 °F 65.8 °F 55% 29.84 in 10.0 mi East 10.4 mph - N/A   Clear
2:15 PM 84.6 °F 86.6 °F 65.8 °F 53% 29.83 in 10.0 mi East 12.7 mph 16.1 mph N/A   Clear
2:35 PM 85.6 °F 87.6 °F 65.7 °F 51% 29.84 in 10.0 mi SE 5.8 mph - N/A   Clear
2:55 PM 85.1 °F 87.1 °F 65.5 °F 52% 29.82 in 10.0 mi ESE 10.4 mph - N/A   Clear
3:15 PM 84.2 °F 86.1 °F 65.5 °F 53% 29.82 in 10.0 mi East 8.1 mph 16.1 mph N/A   Clear
3:35 PM 86.4 °F 88.4 °F 65.5 °F 50% 29.83 in 10.0 mi SE 10.4 mph 16.1 mph N/A   Clear
3:55 PM 86.4 °F 88.4 °F 65.5 °F 50% 29.82 in 10.0 mi East 11.5 mph - N/A   Clear
4:15 PM 86.9 °F 88.9 °F 65.8 °F 49% 29.81 in 10.0 mi SE 10.4 mph - N/A   Clear
4:35 PM 85.3 °F 87.9 °F 66.7 °F 54% 29.80 in 10.0 mi SE 10.4 mph - N/A   Clear
4:55 PM 85.5 °F 87.6 °F 66.2 °F 52% 29.79 in 10.0 mi ESE 10.4 mph - N/A   Clear
5:15 PM 84.6 °F 86.6 °F 65.7 °F 53% 29.82 in 10.0 mi Calm Calm - N/A   Clear
5:35 PM 83.3 °F 85.9 °F 67.1 °F 58% 29.81 in 10.0 mi ENE 5.8 mph - N/A   Scattered Clouds
5:55 PM 82.0 °F 84.9 °F 67.8 °F 62% 29.77 in 10.0 mi SE 11.5 mph - N/A   Scattered Clouds
6:15 PM 82.2 °F 84.7 °F 67.1 °F 60% 29.70 in 10.0 mi SSE 21.9 mph 51.8 mph N/A   Scattered Clouds
6:35 PM 81.7 °F 84.3 °F 67.5 °F 62% 29.72 in 10.0 mi SSE 13.8 mph 20.7 mph N/A   Clear
6:55 PM 82.2 °F 84.7 °F 66.9 °F 60% 29.73 in 10.0 mi South 17.3 mph - N/A   Clear
7:15 PM 82.2 °F 84.7 °F 67.1 °F 60% 29.77 in 10.0 mi South 15.0 mph - N/A   Clear
7:35 PM 81.5 °F 84.1 °F 67.5 °F 62% 29.79 in 10.0 mi ESE 6.9 mph - N/A   Clear
7:55 PM 81.5 °F 84.2 °F 67.8 °F 63% 29.79 in 10.0 mi ESE 6.9 mph - N/A   Clear
8:15 PM 80.6 °F 83.2 °F 68.0 °F 65% 29.80 in 10.0 mi SE 3.5 mph - N/A   Clear
8:35 PM 79.7 °F - 68.2 °F 68% 29.80 in 10.0 mi East 4.6 mph - N/A   Clear
8:55 PM 78.6 °F - 68.5 °F 71% 29.79 in 10.0 mi East 4.6 mph - N/A   Clear
9:15 PM 77.0 °F - 68.9 °F 76% 29.79 in 10.0 mi East 5.8 mph - N/A   Clear
9:35 PM 76.3 °F - 68.9 °F 78% 29.79 in 10.0 mi ESE 5.8 mph - N/A   Clear
9:55 PM 76.1 °F - 68.9 °F 78% 29.80 in 10.0 mi East 6.9 mph - N/A   Clear
10:15 PM 75.7 °F - 68.5 °F 78% 29.81 in 10.0 mi ESE 6.9 mph - N/A   Clear
10:35 PM 74.7 °F - 68.4 °F 81% 29.81 in 10.0 mi ESE 5.8 mph - N/A   Clear
10:55 PM 74.3 °F - 68.4 °F 82% 29.82 in 10.0 mi ESE 6.9 mph - N/A   Clear
11:15 PM 73.9 °F - 68.5 °F 83% 29.81 in 10.0 mi ESE 8.1 mph - N/A   Clear
11:35 PM 74.3 °F - 68.9 °F 83% 29.81 in 10.0 mi SE 8.1 mph - N/A   Clear
11:55 PM 74.7 °F - 68.9 °F 82% 29.81 in 10.0 mi SE 6.9 mph - N/A   Clear